Regional Weather Roundup
Issued by NWS Glasgow, MT

Home | Current Version | Previous Version | Text Only | Print | Product List | Glossary On
Versions: 1 2 3 4 5 6 7 8 9 10 11 12 13 14 15 16 17 18 19 20 21 22 23 24 25 26 27 28 29 30 31 32 33 34 35 36 37 38 39 40 41 42 43 44 45 46 47 48 49 50
000
ASUS45 KGGW 312315
RWRGGW
HOURLY WEATHER ROUNDUP FOR NORTHEAST MONTANA
NATIONAL WEATHER SERVICE GLASGOW MONTANA
400 PM MST SAT JAN 31 2015

NOTE: "FAIR" INDICATES FEW OR NO CLOUDS BELOW 12,000 FEET WITH NO
SIGNIFICANT WEATHER AND/OR OBSTRUCTIONS TO VISISBILITY.

NORTHEAST MONTANA


CITY           SKY/WX    TMP DP  RH WIND       PRES   REMARKS
GLASGOW        LGT SNOW  10   3  73 NE20      30.32R VSB 1   WCI  -9
PLENTYWOOD       N/A      4  -1  80 NE17        N/A  WCI -16
WOLF POINT     LGT SNOW  10   4  76 NE20      30.35R WCI  -9
JORDAN           N/A     13   8  81 N12       30.24R WCI  -1
WINNETT          N/A     17  13  84 N16         N/A
SIDNEY         PTCLDY     9   1  72 N16       30.33R WCI  -9
GLENDIVE       MOCLDY    10   7  85 NE20      30.21R WCI  -8
MALTA            N/A     12   8  84 NE13G26     N/A  WCI  -3
SCOBEY           N/A      7  -4  61 NE13G18   30.30  WCI  -9

FORT PECK REPORTS


CITY           SKY/WX    TMP DP  RH WIND       PRES   REMARKS
FORT PECK        N/A     11   8  88 N17G26      N/A  WCI  -6
THE PINES        N/A     12  10  92 NE17G25     N/A  WCI  -5

SOUTHEAST MONTANA


CITY           SKY/WX    TMP DP  RH WIND       PRES   REMARKS
BILLINGS       FLURRIES  25  18  74 NE16      30.14R
MILES CITY     LGT SNOW  20  16  84 NE18G26   30.14R FOG
BAKER          SNOW      16  13  88 E18       30.11R VSB 1/4 WCI   0
LIVINGSTON     PTSUNNY   27  12  53 NW16      30.10R

CENTRAL MONTANA


CITY           SKY/WX    TMP DP  RH WIND       PRES   REMARKS
HAVRE          LGT SNOW  10   4  76 NE13      30.38R WCI  -5
LEWISTOWN      LGT SNOW  15   9  76 N9G17     30.21R
GREAT FALLS    LGT SNOW  12   9  85 N7        30.30R VSB 3/4
CUT BANK       CLOUDY     9   3  77 N16       30.30S WCI  -8
HELENA         CLOUDY    21  10  62 N14       30.25R
BUTTE          SUNNY     35  18  49 NW8       30.05R
BOZEMAN        CLOUDY    29  18  63 N12       30.11R

WESTERN MONTANA


CITY           SKY/WX    TMP DP  RH WIND       PRES   REMARKS
MISSOULA       SUNNY     39  24  55 N17G24    30.13F
KALISPELL      NOT AVBL

NORTH DAKOTA


CITY           SKY/WX    TMP DP  RH WIND       PRES   REMARKS
WILLISTON      LGT SNOW   4  -2  76 NE17      30.38R VSB 3/4 WCI -16
DICKINSON      SNOW       9   4  80 NE21G26   30.17R VSB 1/2 WCI -11
MINOT          CLOUDY     1  -8  66 NE14      30.41R WCI -17
BISMARCK       CLOUDY     9  -1  64 NE16      30.32R WCI  -8

SOUTHERN SASKATCHEWAN


CITY           SKY/WX    TMP DP  RH WIND       PRES   REMARKS
REGINA         MOCLDY    -2 -11  65 NE7       30.49R
ESTEVAN        CLOUDY    -4 -13  65 NE12      30.44S WCI -22
SWIFT CURRENT  CLOUDY    -2  -6  84 NE7       30.41R



USA.gov is the U.S. government's official web portal to all federal, state and local government web resources and services.